Location: Lesignano de� Bagni
(44.6500°N, 10.3000°E)
Time: 09:24:18
(UTC+00:00)

Cosmos 1933 Rocket - Pass Details

Date: 03 March 2021
Orbit: 607 x 630 km, 82.5° (Epoch: 18 April)

Event Time Altitude Azimuth Distance (km) Brightness Sun altitude
Rises 18:55:42 0° 201° (SSW) 2,858 7.1 -19.6°
Reaches altitude 10° 18:57:58 10° 207° (SSW) 1,961 6.3 -20.0°
Maximum altitude 19:02:10 49° 282° (WNW) 801 4.5 -20.8°
Drops below altitude 10° 19:06:26 10° 358° (N) 1,990 6.3 -21.5°
Sets 19:08:45 0° 4° (N) 2,904 7.1 -21.9°
